Theta_e
292 292 294 294 295 295 289 293 288 293 292 298 302 301 298 297 297 296 296 298 299 299 299 298 297 296 294 294 294 293 293 292 292 292 292 291 290 290 290 290 289 289 288 287
288 295 295 293 295 296 296 295 293 294 293 303 302 302 297 296 296 296 297 298 299 299 298 297 296 295 294 293 293 293 292 292 292 291 290 289 289 290 289 289 289 289 288 287
286 293 293 289 294 296 298 299 299 295 299 303 298 298 298 297 297 297 298 298 299 299 298 298 297 295 294 293 293 292 292 292 291 290 289 289 289 289 288 288 289 288 288 287
285 290 283 293 298 297 296 298 299 300 300 300 299 301 302 301 300 299 299 299 300 300 299 299 298 296 294 293 293 292 292 291 290 290 288 288 289 288 289 289 288 288 288 287
284 286 292 294 296 294 293 294 299 298 299 300 300 301 300 301 302 302 302 302 302 302 301 299 297 295 294 293 292 292 291 290 290 289 287 288 288 288 289 289 288 288 288 287
285 284 283 294 299 299 299 292 300 300 299 300 300 297 299 302 303 303 303 303 302 302 300 298 297 295 293 292 292 291 290 290 290 288 288 288 288 289 289 289 288 288 288 288
282 284 292 300 301 300 291 293 301 301 301 302 301 303 304 304 303 304 304 303 302 301 299 298 297 295 293 292 291 291 291 290 289 288 287 289 289 289 290 289 289 288 288 288
284 286 285 303 302 296 301 304 302 303 303 304 302 304 303 303 303 303 302 301 301 300 299 298 296 295 293 292 293 292 290 289 288 288 287 288 289 290 290 289 289 288 288 287
284 293 303 304 303 305 305 303 302 303 304 304 303 303 303 302 302 302 301 301 301 300 297 297 296 295 293 292 292 291 289 288 288 287 287 288 288 289 289 289 288 287 286 286
287 299 301 304 306 306 306 303 303 303 305 305 303 304 303 303 302 301 301 300 301 298 297 295 295 294 294 293 292 290 288 287 288 287 287 288 289 288 287 287 287 286 285 285
290 299 302 304 305 303 304 306 302 303 306 305 305 304 303 302 302 301 301 301 300 299 297 295 295 294 294 293 292 289 288 287 287 288 288 287 286 286 286 285 284 285 286 284
291 298 299 299 302 303 304 302 301 302 304 306 306 304 304 303 302 301 300 300 299 299 298 296 294 294 294 294 292 289 288 288 288 288 288 288 287 286 282 282 283 283 282 283
294 298 299 300 302 307 303 302 301 303 305 304 305 305 305 303 302 298 301 300 300 299 298 296 295 294 294 294 293 290 289 288 287 288 288 288 288 288 286 284 282 281 283 282
299 299 298 304 302 306 303 301 302 303 304 304 304 305 304 302 299 301 300 301 300 299 297 296 295 294 294 294 293 292 291 284 290 289 289 289 289 288 288 287 286 286 283 282
299 301 301 303 304 302 302 302 301 301 301 302 304 303 302 300 300 301 302 301 300 299 297 296 295 294 295 295 293 293 291 290 291 291 290 288 289 288 288 288 287 287 288 285
300 301 300 301 304 302 301 301 301 300 302 301 302 301 301 302 302 301 301 300 298 297 297 297 295 296 296 295 294 294 293 286 289 291 289 290 289 289 288 288 288 288 287 287
297 298 300 300 302 304 303 303 303 302 302 302 302 302 302 299 300 300 300 300 300 299 298 297 296 297 295 295 295 295 295 291 288 292 291 291 291 290 289 289 288 288 287 284
303 302 301 301 301 304 306 303 304 303 303 303 302 301 298 297 300 300 300 300 300 299 299 298 298 296 296 296 296 296 295 293 291 292 292 291 292 291 290 289 289 288 288 284
304 302 301 300 303 304 306 306 304 305 304 303 301 300 298 297 301 301 300 297 292 297 298 299 288 293 296 294 294 297 295 294 292 293 293 289 290 292 291 290 289 289 289 287
302 302 302 302 304 305 305 307 307 305 305 304 296 295 296 289 291 294 300 297 299 301 301 299 294 297 297 294 288 297 296 295 293 293 293 292 293 293 292 288 290 290 290 290
303 305 304 304 305 306 307 307 305 305 304 295 299 294 293 297 294 292 299 298 301 300 301 292 296 298 298 295 292 298 297 295 295 294 294 293 295 293 292 293 291 290 287 290
303 303 303 303 306 306 307 307 307 305 304 292 288 289 290 296 292 296 303 303 305 289 298 298 298 294 297 288 296 299 297 296 295 295 295 293 291 289 289 288 289 287 286 287
303 303 304 304 304 305 306 306 304 304 294 292 291 294 298 303 301 299 299 303 306 293 301 301 294 288 286 297 300 300 298 296 295 295 296 293 290 288 289 289 289 288 287 288
301 302 303 305 306 305 303 304 305 306 303 304 304 300 303 303 303 305 307 295 293 290 301 302 293 287 287 299 300 299 298 298 297 296 296 289 288 288 290 288 291 288 288 288
301 302 302 303 302 303 304 305 306 306 307 307 307 304 303 306 307 307 306 305 289 293 301 288 287 286 293 298 299 298 298 298 296 292 295 291 290 287 288 289 289 288 287 287
301 301 302 303 303 304 304 305 305 306 304 305 307 309 307 305 306 305 306 299 301 294 303 298 291 290 295 298 298 296 297 297 296 295 292 295 293 292 289 290 289 289 287 287
301 293 302 303 304 304 304 302 304 304 303 304 303 306 307 305 303 301 297 302 302 298 300 295 295 292 296 298 297 297 297 298 295 296 295 293 293 290 289 289 288 288 287 287
Wind_Speed
14 17 17 19 19 12 11 8 6 1 3 16 10 2 10 13 14 16 17 16 13 12 10 9 8 7 6 6 6 6 7 8 9 9 10 11 12 13 13 14 15 16 17 17
14 12 11 17 14 16 18 15 16 15 16 7 6 8 14 15 16 17 17 16 14 12 11 9 8 7 7 6 6 6 7 8 9 10 10 12 12 13 14 15 16 17 18 18
7 7 16 7 6 9 9 13 12 12 8 5 3 8 13 16 17 18 18 16 15 13 11 10 9 7 8 7 6 6 7 8 8 9 10 11 12 14 15 15 16 17 19 19
7 12 4 3 6 4 5 6 6 12 11 2 2 7 11 14 16 17 17 16 14 12 11 11 10 9 8 7 6 6 7 7 8 9 10 11 12 14 15 14 15 15 18 20
4 7 10 3 10 7 6 8 5 5 3 7 10 13 10 12 14 16 17 15 13 12 12 12 10 10 8 7 6 7 7 8 8 9 10 11 13 14 13 14 14 15 16 19
4 5 1 7 13 5 3 3 10 7 2 9 11 8 9 14 14 15 16 15 15 14 13 13 11 10 8 8 7 7 7 7 7 8 9 11 12 13 12 12 14 12 16 18
5 5 7 8 15 4 5 8 12 9 2 10 4 7 19 18 16 16 16 17 16 15 13 13 11 10 9 8 7 7 6 6 7 8 9 10 10 11 11 12 13 15 16 17
5 6 4 17 11 12 11 10 8 8 5 10 7 14 19 19 18 18 18 18 16 14 13 13 12 9 10 9 8 7 6 7 7 8 7 8 11 11 12 13 14 15 16 15
5 4 10 20 9 12 11 9 7 7 7 9 11 17 18 19 18 17 18 16 15 14 14 12 11 9 10 10 8 7 7 7 7 7 8 9 11 12 10 12 12 13 13 13
6 6 13 13 11 15 15 11 10 5 8 10 13 17 18 17 16 16 16 16 14 15 14 13 11 9 11 11 9 7 7 7 6 7 8 9 8 10 10 11 11 11 12 13
11 13 17 8 20 22 20 12 7 3 8 11 16 17 18 16 16 15 15 14 15 14 13 14 12 11 11 11 9 8 7 6 6 6 7 9 11 10 10 12 12 10 11 11
5 19 11 20 24 25 14 9 3 6 11 12 15 18 18 15 15 15 15 15 14 14 14 14 13 12 12 11 9 8 7 5 5 5 5 5 6 7 13 12 14 15 16 12
14 20 20 24 23 14 15 6 2 7 10 14 14 15 16 16 14 13 15 16 15 15 15 14 14 12 12 11 10 8 7 7 5 4 5 5 5 5 5 5 10 15 13 17
16 16 16 12 19 15 8 4 7 10 10 10 14 14 14 14 15 15 15 15 15 15 15 14 14 13 12 12 10 8 7 4 5 4 5 4 5 5 5 5 5 6 9 11
8 8 16 18 10 4 2 5 9 10 11 12 12 13 13 15 14 13 14 14 15 14 14 14 14 13 13 12 11 9 8 6 5 5 4 4 4 4 4 4 4 4 5 5
20 19 17 13 8 3 2 3 7 8 10 12 12 13 12 12 13 13 13 15 16 14 15 13 13 13 13 12 11 8 7 6 5 5 5 5 4 4 3 3 4 4 5 6
15 17 10 6 8 8 5 1 5 7 8 11 12 13 13 12 12 13 13 13 12 12 14 14 12 14 13 13 12 8 7 7 5 5 5 5 5 4 4 3 3 3 4 4
14 16 14 13 10 7 7 3 4 7 8 10 12 13 11 13 14 15 13 13 11 11 12 13 13 14 14 14 12 8 7 7 7 5 5 5 5 4 4 4 4 3 3 3
9 10 10 10 8 6 4 3 4 6 8 11 12 12 13 9 13 14 14 10 8 13 13 13 11 14 15 13 11 9 8 8 8 6 6 5 5 4 4 4 4 4 4 4
3 3 4 6 6 5 4 3 1 6 8 10 6 7 10 6 6 9 14 15 15 9 13 14 16 15 14 14 10 9 9 9 8 7 6 7 6 5 5 4 4 5 4 4
12 9 5 4 2 2 3 3 1 4 6 6 11 10 10 11 9 10 12 10 14 11 13 14 14 12 11 12 13 10 10 10 9 9 8 7 5 7 6 5 5 5 5 5
12 10 9 9 7 6 4 3 3 1 5 6 3 6 7 10 10 12 12 10 9 11 10 11 12 14 12 13 12 11 11 11 10 9 9 8 7 7 6 6 6 6 6 6
11 11 9 8 8 7 7 7 4 3 3 5 7 9 11 8 10 11 12 14 9 13 12 11 12 13 13 12 10 11 12 11 11 10 8 8 8 8 8 8 7 7 7 7
12 12 12 10 10 10 11 9 7 5 2 5 6 8 10 8 8 10 7 7 10 13 12 11 12 16 16 11 10 11 10 10 10 8 9 9 8 8 7 8 7 7 7 8
10 9 10 11 11 9 9 9 7 7 6 4 5 6 10 8 8 7 9 7 9 12 12 10 14 18 13 11 11 11 11 10 10 9 9 8 9 9 8 8 8 8 8 8
9 7 6 8 7 7 7 7 7 6 6 6 5 3 4 6 6 5 7 9 11 13 11 9 11 12 12 12 12 12 11 11 11 11 10 10 10 9 9 9 9 8 9 9
7 5 7 6 6 6 6 6 6 7 6 6 7 5 3 4 6 7 7 8 9 10 9 8 11 13 12 12 12 12 11 10 11 11 10 9 9 8 9 9 9 8 8 8
Wind_Direction
297 286 275 277 274 266 216 240 220 232 228 284 305 265 153 149 153 152 154 156 151 150 147 138 130 122 103 91 67 42 34 25 20 12 6 5 5 2 3 6 3 4 1 2
294 291 287 289 272 257 240 247 240 272 291 301 66 124 146 158 157 162 158 157 155 153 147 141 134 132 107 90 69 48 41 31 20 13 10 12 7 7 9 12 8 8 10 3
271 304 314 285 264 271 259 231 246 256 234 263 160 167 167 161 167 164 162 159 157 155 153 141 136 127 110 98 82 59 47 34 24 16 14 14 11 13 12 15 12 11 14 10
285 305 229 356 9 314 302 289 243 261 281 257 53 159 158 165 163 160 160 156 154 153 148 135 133 119 114 110 92 67 52 40 28 21 18 16 19 20 15 17 17 14 15 17
269 294 286 82 30 8 346 77 28 336 41 128 117 126 135 160 163 161 158 151 150 149 142 133 135 129 124 115 99 76 56 44 32 23 22 20 23 20 20 18 20 22 19 21
317 272 257 41 8 360 250 114 12 355 66 152 166 177 135 159 154 148 145 145 147 145 141 135 136 135 129 114 99 77 59 51 38 32 27 26 22 21 19 24 23 25 27 23
276 284 282 352 344 322 356 0 346 346 281 160 166 23 132 145 144 146 142 142 142 145 142 135 142 140 126 123 99 89 77 64 45 40 31 28 28 27 23 26 30 28 28 28
195 245 242 15 344 3 338 318 352 19 111 141 101 127 136 139 138 140 139 139 150 144 138 140 145 144 132 116 114 103 87 74 55 43 36 30 32 30 30 31 30 31 28 28
269 281 332 320 326 358 339 314 350 10 140 139 135 142 140 138 139 141 142 149 151 142 139 144 147 145 131 128 126 115 103 84 70 54 43 36 34 33 30 34 33 30 29 26
305 232 317 312 12 355 347 327 338 325 160 151 144 146 138 137 137 141 146 151 148 145 147 145 147 147 129 135 133 127 112 100 81 58 47 41 44 40 38 30 32 34 33 29
267 276 322 192 343 342 328 321 323 260 163 147 147 147 142 140 142 144 147 151 153 152 152 147 151 145 140 140 142 131 120 109 97 80 68 66 53 26 44 47 28 29 26 35
293 329 308 307 316 320 327 329 331 168 149 149 155 147 145 144 142 148 148 153 156 152 151 152 154 151 146 145 151 141 133 128 98 98 83 76 79 80 56 47 43 46 43 30
274 294 297 300 293 318 328 344 130 161 148 142 142 144 146 141 148 143 150 157 158 158 156 156 155 155 152 152 154 155 139 126 115 115 98 91 79 77 75 85 72 47 36 42
285 301 296 331 315 318 346 59 111 119 122 133 136 140 139 143 140 153 158 158 156 157 159 159 159 159 156 155 159 155 137 83 128 120 106 108 86 71 61 60 47 33 50 40
292 293 300 308 330 3 43 130 125 120 124 128 136 141 146 148 152 153 152 154 156 158 163 164 165 161 161 161 161 159 145 152 135 124 112 99 100 89 78 74 69 61 58 46
303 302 300 298 358 21 51 119 121 132 136 137 141 147 151 152 142 147 156 159 161 170 170 172 169 162 162 168 162 158 151 127 145 144 143 135 129 119 106 90 76 66 57 44
280 281 288 288 347 358 358 106 138 149 142 144 144 145 142 139 145 153 163 169 168 171 174 174 169 157 165 173 164 163 155 158 167 164 161 155 148 147 141 128 99 78 80 61
257 261 267 277 295 323 353 15 141 150 158 141 144 151 145 162 164 161 166 169 163 173 181 177 169 160 172 171 171 167 166 165 178 179 172 169 167 157 156 154 144 133 117 102
245 239 244 252 262 287 313 2 188 163 156 153 156 168 171 169 165 162 164 155 162 179 186 178 147 171 175 172 173 170 174 174 180 185 186 168 178 178 173 172 166 163 151 152
2 244 251 254 266 260 280 339 197 182 175 165 141 145 167 168 149 146 169 182 190 190 171 172 169 185 181 163 183 174 179 181 186 190 191 192 192 191 193 189 182 170 173 174
29 41 22 319 308 306 274 291 189 206 194 156 177 178 179 169 161 165 175 191 199 188 174 158 181 184 183 164 187 178 183 186 189 191 192 201 186 198 200 192 190 185 193 199
21 30 34 21 19 23 32 322 259 158 188 160 112 128 145 165 166 199 205 201 177 156 169 177 188 184 180 155 189 186 188 191 192 194 192 188 191 193 193 196 200 197 199 203
21 27 36 42 33 32 47 37 357 277 190 183 178 184 199 198 183 183 204 209 186 177 185 186 178 163 150 175 184 185 192 193 194 197 195 186 187 191 196 202 204 204 199 205
13 18 17 21 33 35 27 16 2 338 262 257 216 197 197 195 200 211 213 165 179 166 195 180 166 163 166 181 185 185 189 192 193 193 192 181 192 192 194 200 201 203 205 209
358 5 13 15 23 23 11 5 3 10 356 319 266 208 220 221 214 197 202 187 161 173 195 161 166 171 180 186 188 190 192 192 192 186 194 189 190 200 197 199 200 200 205 208
342 344 349 4 1 354 1 359 1 3 354 343 324 269 222 223 224 212 196 188 183 191 192 166 173 178 190 192 192 192 194 197 189 196 195 196 196 195 199 198 201 200 204 208
329 329 344 346 355 345 351 350 346 350 349 335 313 313 294 238 229 223 208 192 195 190 192 173 178 186 191 196 194 194 197 199 196 196 196 198 196 199 197 198 198 202 204 206